星链-30552 (STARLINK-30552 )

导读 | 星芒AI

STARLINK-30552 是 SpaceX Starlink 卫星互联网项目中的一颗低轨卫星,属于第三代星链卫星(v1.5)。该卫星于2023年发射,运行在约550公里高度的近地轨道,旨在为全球用户提供高速、低延迟的宽带互联网服务。它采用先进的推进系统和激光通信技术,提高网络效率并减少空间碎片风险。作为 Starlink 项目的重要组成部分,该卫星有助于扩大覆盖范围,特别是在偏远和网络基础设施薄弱的地区。

基本信息
目录编号:
57999
目录名称:
STARLINK-30552
国际标识:
2023-153J
轨道中心:
EARTH
卫星名称:
星链-30552
卫星全名:
星链-30552 (STARLINK-30552 )
卫星状态:
在轨 (已飞行756 天)
发射日期:
2023-10-05 UTC
国别 :
美国 (US)
星等 :
--
轨道信息
数据来源 国际轨道数据 AOE轨道数据
星历时间 2025-10-30T09:08:31+0800
21小时前
查看轨道信息
2025-10-29T02:00:00+0800
2天前
查看轨道信息
半长轴 6937.212km 6937.221km
偏心率 0.0001586 0.0000372
轨道倾角 43.004° 43.008°
近地点辐角 274.016° 215.294°
升交点赤经 58.690° 65.742°
平近点角 86.050° 317.930°
近地点 557.976km 558.827km
远地点 560.178km 559.345km
周期 95.838分钟 95.838分钟
每日圈数 15.025377 15.025347
详细信息
固有亮度:
5
最大亮度:
0.3
卫星平台:
Starlink v2.0 mini
覆盖范围:
全球
运营商:
太空探索技术公司
运营商所在国:
美国
制造商(研发单位):
太空探索技术公司
制造商所在国:
美国
使用方式:
暂无
卫星简介
星链(Starlink)计划是由太空探索技术公司(SpaceX)提出的一个巨型低轨卫星互联网星座项目,计划在2019年至2024年间在太空搭建由约1.2万颗卫星组成的“星链”网络,其中1584颗将部署在地球上空550千米处的近地轨道,并从2020年开始工作。该卫星仍在工作。
2D轨道图
3D轨道图
轨道高度分析图
轨道倾角分析图
轨道综合分析图
查看轨道综合分析图